| time (UTC) | temp F | wind direction | speed MPH | gust MPH | rain 1hr in | rain 24hr in | rain mn in | humidity % | barometer mb |
| 20260901204556 | 92 | 211 | 4.0 | 9.0 | 0.00 | 0.00 | 0.00 | 72 | 987.4 |
| 20260901203056 | 92 | 227 | 3.0 | 7.0 | 0.00 | 0.00 | 0.00 | 72 | 987.4 |
| 20260901201547 | 92 | 224 | 3.0 | 8.0 | 0.00 | 0.00 | 0.00 | 72 | 987.5 |
| 20260901200045 | 91 | 242 | 5.0 | 9.0 | 0.00 | 0.00 | 0.00 | 71 | 987.6 |
| 20260901194545 | 91 | 260 | 4.0 | 9.0 | 0.00 | 0.00 | 0.00 | 73 | 987.6 |
| 20260901193039 | 91 | 232 | 4.0 | 8.0 | 0.00 | 0.00 | 0.00 | 71 | 987.7 |
| 20260901191555 | 91 | 236 | 4.0 | 10.0 | 0.00 | 0.00 | 0.00 | 72 | 987.8 |
| 20260901190038 | 91 | 228 | 5.0 | 10.0 | 0.00 | 0.00 | 0.00 | 72 | 987.7 |
| 20260901184545 | 91 | 240 | 4.0 | 9.0 | 0.00 | 0.00 | 0.00 | 74 | 987.8 |
| 20260901183045 | 90 | 200 | 2.0 | 8.0 | 0.00 | 0.00 | 0.00 | 72 | 987.9 |
| 20260901181532 | 90 | 220 | 3.0 | 10.0 | 0.00 | 0.00 | 0.00 | 73 | 987.8 |
| 20260901180032 | 90 | 269 | 2.0 | 9.0 | 0.00 | 0.00 | 0.00 | 75 | 987.7 |
| 20260901174528 | 89 | 259 | 2.0 | 9.0 | 0.00 | 0.00 | 0.00 | 74 | 987.9 |
| 20260901173026 | 89 | 226 | 4.0 | 6.0 | 0.00 | 0.00 | 0.00 | 77 | 988.0 |
| 20260901171526 | 88 | 240 | 5.0 | 8.0 | 0.00 | 0.00 | 0.00 | 75 | 988.1 |
| 20260901170024 | 88 | 217 | 2.0 | 5.0 | 0.00 | 0.00 | 0.00 | 78 | 988.1 |
| 20260901164536 | 88 | 233 | 3.0 | 6.0 | 0.00 | 0.00 | 0.00 | 76 | 988.3 |
| 20260901163019 | 87 | 241 | 4.0 | 8.0 | 0.00 | 0.00 | 0.00 | 77 | 988.3 |
| 20260901161539 | 86 | 234 | 3.0 | 8.0 | 0.00 | 0.00 | 0.00 | 77 | 988.4 |
| 20260901160017 | 86 | 249 | 5.0 | 8.0 | 0.00 | 0.00 | 0.00 | 76 | 988.5 |
| 20260901154514 | 86 | 231 | 5.0 | 10.0 | 0.00 | 0.00 | 0.00 | 78 | 988.5 |
| 20260901153013 | 85 | 198 | 4.0 | 10.0 | 0.00 | 0.00 | 0.00 | 77 | 988.6 |
| 20260901151510 | 85 | 157 | 3.0 | 8.0 | 0.00 | 0.00 | 0.00 | 78 | 988.5 |
| 20260901150009 | 84 | 238 | 3.0 | 7.0 | 0.00 | 0.00 | 0.00 | 79 | 988.7 |
| 20260901144505 | 84 | 274 | 5.0 | 9.0 | 0.00 | 0.00 | 0.00 | 78 | 988.7 |
| 20260901143004 | 83 | 226 | 4.0 | 9.0 | 0.00 | 0.00 | 0.00 | 79 | 988.8 |
| 20260901141600 | 83 | 253 | 3.0 | 6.0 | 0.00 | 0.00 | 0.00 | 81 | 988.6 |
| 20260901140100 | 82 | 239 | 2.0 | 7.0 | 0.00 | 0.00 | 0.00 | 82 | 988.7 |
| 20260901134554 | 81 | 266 | 2.0 | 5.0 | 0.00 | 0.00 | 0.00 | 84 | 988.8 |
| 20260901133051 | 80 | 238 | 2.0 | 6.0 | 0.00 | 0.00 | 0.00 | 85 | 989.0 |
| 20260901131548 | 79 | 233 | 3.0 | 6.0 | 0.00 | 0.00 | 0.00 | 86 | 989.1 |
| 20260901130056 | 78 | 229 | 2.0 | 5.0 | 0.00 | 0.00 | 0.00 | 87 | 989.0 |
| 20260901124542 | 78 | 243 | 0.0 | 3.0 | 0.00 | 0.00 | 0.00 | 88 | 988.9 |
| 20260901123039 | 77 | 241 | 0.0 | 2.0 | 0.00 | 0.00 | 0.00 | 91 | 988.8 |
| 20260901121538 | 75 | 215 | 0.0 | 2.0 | 0.00 | 0.00 | 0.00 | 93 | 988.6 |
| 20260901120039 | 73 | 219 | 0.0 | 0.0 | 0.00 | 0.00 | 0.00 | 96 | 988.6 |
| 20260901114538 | 0 | 0.0 | 0.0 | 0.00 | 0.00 | 0.00 | 988.5 | ||
| 20260901113028 | 0 | 0.0 | 0.0 | 0.00 | 0.00 | 0.00 | 988.3 | ||
| 20260901111524 | 0 | 0.0 | 0.0 | 0.00 | 0.00 | 0.00 | 988.1 | ||
| 20260901110019 | 0 | 0.0 | 0.0 | 0.00 | 0.00 | 0.00 | 988.0 | ||
| 20260901104515 | 0 | 224 | 0.0 | 1.0 | 0.00 | 0.00 | 0.00 | 987.9 | |
| 20260901103011 | 73 | 219 | 0.0 | 1.0 | 0.00 | 0.00 | 0.00 | 94 | 988.1 |
| 20260901101509 | 74 | 219 | 1.0 | 4.0 | 0.00 | 0.00 | 0.00 | 93 | 988.0 |
| 20260901100006 | 74 | 238 | 1.0 | 5.0 | 0.00 | 0.00 | 0.00 | 93 | 987.9 |
| 20260901094505 | 74 | 230 | 3.0 | 6.0 | 0.00 | 0.00 | 0.00 | 93 | 987.6 |
| 20260901093005 | 74 | 234 | 3.0 | 5.0 | 0.00 | 0.00 | 0.00 | 92 | 987.7 |
| 20260901091504 | 74 | 243 | 3.0 | 7.0 | 0.00 | 0.00 | 0.00 | 92 | 987.6 |
| 20260901090007 | 74 | 238 | 2.0 | 5.0 | 0.00 | 0.00 | 0.00 | 92 | 987.6 |
| 20260901084502 | 74 | 233 | 2.0 | 6.0 | 0.00 | 0.00 | 0.00 | 92 | 987.5 |
| 20260901083002 | 75 | 237 | 2.0 | 5.0 | 0.00 | 0.00 | 0.00 | 91 | 987.5 |
| 20260901081505 | 75 | 240 | 2.0 | 5.0 | 0.00 | 0.00 | 0.00 | 91 | 987.5 |
| 20260901080002 | 75 | 233 | 2.0 | 7.0 | 0.00 | 0.00 | 0.00 | 90 | 987.5 |
| 20260901074600 | 75 | 248 | 3.0 | 7.0 | 0.00 | 0.00 | 0.00 | 90 | 987.4 |
| 20260901073103 | 75 | 240 | 2.0 | 5.0 | 0.00 | 0.00 | 0.00 | 90 | 987.2 |
| 20260901071559 | 75 | 233 | 1.0 | 6.0 | 0.00 | 0.00 | 0.00 | 90 | 987.4 |
| 20260901070107 | 75 | 232 | 1.0 | 4.0 | 0.00 | 0.00 | 0.00 | 92 | 987.4 |
| 20260901064556 | 74 | 248 | 0.0 | 3.0 | 0.00 | 0.00 | 0.00 | 92 | 987.5 |
| 20260901063055 | 74 | 205 | 0.0 | 4.0 | 0.00 | 0.00 | 0.00 | 93 | 987.6 |
| 20260901061554 | 74 | 232 | 0.0 | 0.0 | 0.00 | 0.00 | 0.00 | 93 | 987.5 |
| 20260901060054 | 74 | 195 | 0.0 | 2.0 | 0.00 | 0.00 | 0.00 | 93 | 987.7 |
| 20260901054553 | 74 | 160 | 0.0 | 3.0 | 0.00 | 0.00 | 0.00 | 93 | 987.5 |
| 20260901053054 | 74 | 148 | 0.0 | 0.0 | 0.00 | 0.00 | 0.00 | 93 | 987.7 |
| 20260901051552 | 74 | 186 | 0.0 | 0.0 | 0.00 | 0.00 | 0.00 | 92 | 987.7 |
| 20260901050053 | 75 | 186 | 0.0 | 1.0 | 0.00 | 0.00 | 0.00 | 92 | 987.7 |
| 20260901044556 | 75 | 232 | 0.0 | 2.0 | 0.00 | 0.00 | 0.00 | 91 | 987.7 |
| 20260901043044 | 76 | 232 | 0.0 | 1.0 | 0.00 | 0.00 | 0.00 | 90 | 987.6 |
| 20260901041541 | 77 | 232 | 0.0 | 2.0 | 0.00 | 0.00 | 0.00 | 89 | 987.5 |
| 20260901040047 | 77 | 212 | 0.0 | 3.0 | 0.00 | 0.00 | 0.00 | 88 | 987.4 |
| 20260901034538 | 78 | 172 | 2.0 | 6.0 | 0.00 | 0.00 | 0.00 | 88 | 987.1 |
| 20260901033052 | 77 | 148 | 2.0 | 4.0 | 0.00 | 0.00 | 0.00 | 88 | 987.2 |
| 20260901031537 | 77 | 139 | 2.0 | 6.0 | 0.00 | 0.00 | 0.00 | 89 | 987.2 |
| 20260901030037 | 77 | 186 | 1.0 | 5.0 | 0.00 | 0.00 | 0.00 | 90 | 987.4 |
| 20260901024535 | 76 | 159 | 2.0 | 5.0 | 0.00 | 0.00 | 0.00 | 91 | 987.5 |
| 20260901023034 | 75 | 157 | 3.0 | 4.0 | 0.00 | 0.00 | 0.00 | 92 | 987.8 |
| 20260901021546 | 74 | 146 | 1.0 | 2.0 | 0.00 | 0.00 | 0.00 | 93 | 988.1 |
| 20260901020035 | 75 | 146 | 0.0 | 0.0 | 0.00 | 0.00 | 0.00 | 92 | 988.2 |
| 20260901014532 | 75 | 146 | 0.0 | 0.0 | 0.00 | 0.00 | 0.00 | 90 | 988.1 |
| 20260901013046 | 76 | 146 | 0.0 | 0.0 | 0.00 | 0.00 | 0.00 | 90 | 988.1 |
| 20260901011544 | 77 | 146 | 0.0 | 0.0 | 0.00 | 0.00 | 0.00 | 87 | 987.8 |
| 20260901010033 | 78 | 146 | 0.0 | 0.0 | 0.00 | 0.00 | 0.00 | 87 | 987.6 |
| 20260901004530 | 79 | 146 | 0.0 | 0.0 | 0.00 | 0.00 | 0.00 | 85 | 987.6 |
| 20260901003040 | 80 | 146 | 0.0 | 2.0 | 0.00 | 0.00 | 0.00 | 83 | 987.4 |
| 20260901001529 | 82 | 141 | 1.0 | 4.0 | 0.00 | 0.00 | 0.00 | 81 | 987.2 |
| 20260901000033 | 83 | 136 | 2.0 | 3.0 | 0.00 | 0.00 | 0.00 | 78 | 987.2 |
| 20260831234529 | 86 | 146 | 0.0 | 3.0 | 0.00 | 0.00 | 0.00 | 73 | 987.2 |
| 20260831233028 | 87 | 127 | 0.0 | 3.0 | 0.00 | 0.00 | 0.00 | 71 | 987.2 |
| 20260831231528 | 88 | 167 | 0.0 | 3.0 | 0.00 | 0.00 | 0.00 | 68 | 987.1 |
| 20260831230029 | 89 | 261 | 0.0 | 3.0 | 0.00 | 0.00 | 0.00 | 69 | 987.2 |
| 20260831224527 | 89 | 259 | 0.0 | 5.0 | 0.00 | 0.00 | 0.00 | 69 | 987.3 |
| 20260831223034 | 90 | 198 | 1.0 | 6.0 | 0.00 | 0.00 | 0.00 | 67 | 987.1 |
| 20260831221524 | 90 | 272 | 2.0 | 11.0 | 0.00 | 0.00 | 0.00 | 67 | 987.3 |
| 20260831220027 | 90 | 259 | 2.0 | 7.0 | 0.00 | 0.00 | 0.00 | 69 | 987.3 |
| 20260831214523 | 90 | 210 | 4.0 | 11.0 | 0.00 | 0.00 | 0.00 | 67 | 987.4 |
| 20260831213023 | 91 | 196 | 3.0 | 8.0 | 0.00 | 0.00 | 0.00 | 66 | 987.4 |
| 20260831211534 | 90 | 220 | 2.0 | 10.0 | 0.00 | 0.00 | 0.00 | 69 | 987.5 |
| 20260831210020 | 90 | 210 | 2.0 | 8.0 | 0.00 | 0.00 | 0.00 | 70 | 987.2 |